Location: Misciano
(43.5000°N, 11.9500°E)
Time: 21:54:23
(UTC+00:00)

SPOT 5 - Pass Details

Date: 13 August 2020
Orbit: 624 x 814 km, 98.3° (Epoch: 22 September)

Event Time Altitude Azimuth Distance (km) Brightness Sun altitude
Exits shadow 19:40:39 14° 85° (E) 1,744 4.4 -14.0°
Maximum altitude 19:42:04 16° 62° (ENE) 1,637 4.5 -14.2°
Drops below altitude 10° 19:44:47 10° 24° (NNE) 2,033 5.4 -14.6°
Sets 19:47:43 0° 3° (N) 2,971 6.6 -15.0°
